This is the latest recevied weather packets stored in our database for station/object W8LMG. If no packets are shown the sender has not sent any weather packets the latest 10 day(s).
| Time | Temp. | Humidity | Pressure | Rain* | Wind** | Luminosity | Snow |
|---|---|---|---|---|---|---|---|
| 1777701973 | 7.22° C | 67% | 1014.9 hPa | 0 mm | - | 0 W/m² | - |
| 1777701670 | 7.22° C | 67% | 1015.1 hPa | 0 mm | - | 0 W/m² | - |
| 1777701368 | 7.22° C | 66% | 1015.2 hPa | 0 mm | - | 0 W/m² | - |
| 1777701066 | 7.78° C | 65% | 1015.3 hPa | 0 mm | - | 0 W/m² | - |
| 1777700765 | 7.78° C | 65% | 1015.1 hPa | 0 mm | - | 0 W/m² | - |
| 1777700461 | 7.78° C | 63% | 1015.3 hPa | 0 mm | - | 0 W/m² | - |
| 1777700158 | 7.78° C | 65% | 1015.4 hPa | 0 mm | - | 0 W/m² | - |
| 1777699856 | 7.78° C | 70% | 1015.3 hPa | 0 mm | - | 0 W/m² | - |
| 1777699555 | 8.33° C | 70% | 1015.2 hPa | 0 mm | - | 0 W/m² | - |
| 1777699252 | 8.33° C | 70% | 1015.2 hPa | 0 mm | - | 0 W/m² | - |
| 1777698950 | 8.33° C | 68% | 1015.3 hPa | 0 mm | - | 0 W/m² | - |
| 1777698648 | 8.33° C | 69% | 1015.3 hPa | 0 mm | - | 0 W/m² | - |
| 1777698343 | 7.78° C | 67% | 1015.1 hPa | 0 mm | - | 0 W/m² | - |
| 1777698040 | 8.33° C | 72% | 1015.2 hPa | 0 mm | - | 0 W/m² | - |
| 1777697737 | 8.33° C | 70% | 1015.2 hPa | 0 mm | - | 0 W/m² | - |
| 1777697434 | 8.33° C | 71% | 1015.3 hPa | 0 mm | - | 0 W/m² | - |
| 1777697131 | 8.33° C | 69% | 1015.3 hPa | 0 mm | - | 0 W/m² | - |
| 1777696827 | 8.33° C | 70% | 1015.2 hPa | 0 mm | - | 0 W/m² | - |
| 1777696525 | 8.33° C | 70% | 1015 hPa | 0 mm | - | 0 W/m² | - |
| 1777696221 | 8.33° C | 69% | 1015.2 hPa | 0 mm | - | 0 W/m² | - |
| 1777695916 | 8.89° C | 68% | 1015.3 hPa | 0 mm | - | 0 W/m² | - |
| 1777695614 | 8.89° C | 69% | 1015.4 hPa | 0 mm | - | 0 W/m² | - |
| 1777695312 | 8.89° C | 69% | 1015.2 hPa | 0 mm | - | 0 W/m² | - |
| 1777695008 | 8.89° C | 68% | 1015.3 hPa | 0 mm | - | 0 W/m² | - |
| 1777694705 | 8.89° C | 69% | 1015.4 hPa | 0 mm | - | 0 W/m² | - |
* Rain latest hour (hover to see other rain measurements)
** Current wind speed in m/s (hover to see current wind gust speed)